Sidney, NE

3:02 AM MST on February 25, 2018 (GMT -0700)
Sidney Municipal

Weather History for KSNY - November, 2011

Change the Weather History Date:

Saturday, November 19, 2011

  Actual Average Record
Temperature  
Mean Temperature 29 °F 36 °F  
Max Temperature 36 °F 49 °F 78 °F (2007)
Min Temperature 21 °F 23 °F -3 °F (1985)
Degree Days  
Heating Degree Days 36 29  
Month to date heating degree days 513 472  
Since 1 July heating degree days 1074 1075  
Cooling Degree Days 0 0  
Month to date cooling degree days 0 0  
Year to date cooling degree days 960 830  
Moisture  
Dew Point 20 °F    
Average Humidity 75    
Maximum Humidity 88    
Minimum Humidity 61    
Precipitation  
Precipitation 0.00 in 0.03 in 0.61 in (1953)
Month to date precipitation 0.51 0.37  
Year to date precipitation 27.51 17.80  
Sea Level Pressure  
Sea Level Pressure 29.89 in    
Wind  
Wind Speed 10 mph (ENE)    
Max Wind Speed 24 mph    
Max Gust Speed 29 mph    
Visibility 10 miles    
Events      
T = Trace of Precipitation, MM = Missing Value Source: NWS Daily Summary

Daily Weather History Graph

Daily Weather History Graph

Search for Another Location

Airport or City:

Trip Planner

Search our weather history database for the weather conditions in past years. The results will help you decide how hot, cold, wet, or windy it might be!

Date:

Astronomy

Nov. 19, 2011 Rise Set
Actual Time 6:44 AM MST 4:30 PM MST
Civil Twilight 6:14 AM MST 4:59 PM MST
Nautical Twilight 5:40 AM MST 5:33 PM MST
Astronomical Twilight 5:08 AM MST 6:06 PM MST
Moon 12:03 AM MST (11/19) 12:51 PM MST (11/19)
Length of Visible Light 10h 45m
Length of Day
9h 45m
Last Quarter, 37% of the Moon is Illuminated
Nov 19
Last Quarter
Nov 24
New
Dec 2
First Quarter
Dec 10
Full
Dec 17
Last Quarter

Hourly Weather History & Observations

Time (MST) Temp. Windchill Dew Point Humidity Pressure Visibility Wind Dir Wind Speed Gust Speed Precip Events Conditions
12:53 AM 28.0 °F 16.5 °F 19.9 °F 72% 29.50 in 10.0 mi NNE 15.0 mph - N/A   Clear
1:31 AM 28.4 °F 17.5 °F 21.2 °F 74% 29.56 in 10.0 mi NNE 13.8 mph - N/A   Mostly Cloudy
2:12 AM 30.2 °F 18.9 °F 23.0 °F 75% 29.54 in 10.0 mi NE 16.1 mph - N/A   Overcast
2:53 AM 30.0 °F 17.5 °F 24.1 °F 79% 29.50 in 10.0 mi ENE 19.6 mph - N/A   Overcast
5:53 AM 27.0 °F 17.3 °F 23.0 °F 85% 29.75 in 9.0 mi NNE 10.4 mph - N/A   Overcast
6:53 AM 26.1 °F 16.2 °F 21.0 °F 81% 29.75 in 10.0 mi NE 10.4 mph - N/A   Overcast
9:05 AM 26.6 °F 19.1 °F 19.4 °F 74% 29.77 in 10.0 mi North 6.9 mph - N/A   Overcast
9:53 AM 28.0 °F 21.7 °F 19.9 °F 72% 29.87 in 10.0 mi North 5.8 mph - N/A   Overcast
10:53 AM 28.0 °F 20.8 °F 21.0 °F 75% 29.88 in 10.0 mi NE 6.9 mph - N/A   Overcast
11:53 AM 30.9 °F 26.2 °F 21.9 °F 69% 29.88 in 10.0 mi NE 4.6 mph - N/A   Overcast
12:53 PM 33.1 °F 30.0 °F 21.9 °F 64% 29.88 in 10.0 mi Variable 3.5 mph - N/A   Scattered Clouds
1:49 PM 33.8 °F 28.6 °F 21.2 °F 60% 29.82 in 10.0 mi East 5.8 mph - N/A   Mostly Cloudy
2:08 PM 33.8 °F 29.6 °F 21.2 °F 60% 29.83 in 10.0 mi ESE 4.6 mph - N/A   Scattered Clouds
2:53 PM 34.0 °F 31.0 °F 21.9 °F 61% 29.94 in 10.0 mi SE 3.5 mph - N/A   Clear
3:53 PM 30.9 °F 23.5 °F 21.0 °F 67% 29.98 in 10.0 mi ESE 8.1 mph - N/A   Partly Cloudy
4:53 PM 27.0 °F 16.7 °F 19.0 °F 72% 30.04 in 10.0 mi SE 11.5 mph - N/A   Clear
6:53 PM 25.0 °F 12.2 °F 19.0 °F 78% 30.11 in 10.0 mi East 16.1 mph - N/A   Mostly Cloudy
7:53 PM 21.9 °F 12.5 °F 18.0 °F 85% 30.15 in 10.0 mi East 8.1 mph - N/A   Mostly Cloudy
8:53 PM 21.9 °F 12.5 °F 18.0 °F 85% 30.15 in 10.0 mi ESE 8.1 mph - N/A   Overcast
9:53 PM 21.9 °F 14.5 °F 18.0 °F 85% 30.17 in 10.0 mi East 5.8 mph - N/A   Overcast
10:06 PM 21.2 °F 14.9 °F 17.6 °F 86% 30.05 in 10.0 mi ESE 4.6 mph - N/A   Overcast
10:35 PM 21.2 °F 12.6 °F 17.6 °F 86% 30.06 in 10.0 mi ESE 6.9 mph - N/A   Overcast
11:53 PM 21.9 °F 12.5 °F 18.0 °F 85% 30.18 in 10.0 mi South 8.1 mph - N/A   Overcast